TimeCDT,TemperatureF,Dew PointF,Humidity,Sea Level PressureIn,VisibilityMPH,Wind Direction,Wind SpeedMPH,Gust SpeedMPH,PrecipitationIn,Events,Conditions,WindDirDegrees,DateUTC
12:52 AM,52.0,37.0,57,30.20,10.0,SSE,11.5,-,N/A,,Clear,150,2013-04-22 05:52:00
1:52 AM,51.1,37.0,59,30.19,10.0,SSE,12.7,-,N/A,,Clear,150,2013-04-22 06:52:00
2:52 AM,50.0,37.0,61,30.17,10.0,SSE,11.5,-,N/A,,Clear,150,2013-04-22 07:52:00
3:52 AM,48.9,37.9,66,30.15,10.0,SSE,11.5,-,N/A,,Clear,150,2013-04-22 08:52:00
4:52 AM,48.0,37.9,68,30.14,10.0,SSE,11.5,-,N/A,,Clear,160,2013-04-22 09:52:00
5:52 AM,46.0,37.9,73,30.14,10.0,SSE,11.5,-,N/A,,Clear,150,2013-04-22 10:52:00
6:52 AM,46.9,37.9,71,30.16,10.0,SSE,9.2,-,N/A,,Clear,160,2013-04-22 11:52:00
7:52 AM,51.1,37.9,61,30.15,10.0,SSE,11.5,-,N/A,,Clear,160,2013-04-22 12:52:00
8:52 AM,54.0,37.0,53,30.15,10.0,SSE,12.7,-,N/A,,Clear,160,2013-04-22 13:52:00
9:52 AM,59.0,39.0,48,30.13,10.0,SSE,11.5,-,N/A,,Clear,150,2013-04-22 14:52:00
10:52 AM,62.1,39.0,43,30.12,10.0,South,15.0,-,N/A,,Clear,170,2013-04-22 15:52:00
11:52 AM,64.9,37.9,37,30.10,10.0,South,12.7,-,N/A,,Clear,170,2013-04-22 16:52:00
12:52 PM,66.0,36.0,33,30.06,10.0,SSE,15.0,21.9,N/A,,Clear,160,2013-04-22 17:52:00
1:52 PM,66.9,35.1,31,30.02,10.0,SE,16.1,21.9,N/A,,Clear,130,2013-04-22 18:52:00
2:52 PM,66.0,37.9,36,29.99,10.0,SSE,16.1,20.7,N/A,,Clear,150,2013-04-22 19:52:00
3:52 PM,66.9,37.0,33,29.94,10.0,SE,23.0,29.9,N/A,,Clear,130,2013-04-22 20:52:00
4:52 PM,66.0,37.9,36,29.94,10.0,SE,16.1,-,N/A,,Mostly Cloudy,140,2013-04-22 21:52:00
5:52 PM,63.0,39.9,43,29.94,10.0,SSE,11.5,-,0.00,Rain,Light Rain,150,2013-04-22 22:52:00
6:52 PM,64.9,39.9,40,29.92,10.0,SSE,15.0,-,0.00,,Mostly Cloudy,150,2013-04-22 23:52:00
7:52 PM,63.0,39.9,43,29.93,10.0,SE,11.5,-,N/A,,Mostly Cloudy,140,2013-04-23 00:52:00
8:52 PM,57.9,41.0,53,29.96,10.0,SE,8.1,-,N/A,,Clear,130,2013-04-23 01:52:00
9:52 PM,59.0,42.1,53,29.95,10.0,SSE,12.7,-,N/A,,Clear,150,2013-04-23 02:52:00
10:52 PM,60.1,42.1,51,29.94,10.0,SSE,16.1,-,N/A,,Clear,160,2013-04-23 03:52:00
11:52 PM,60.1,43.0,53,29.92,10.0,South,17.3,-,N/A,,Clear,170,2013-04-23 04:52:00